Regional Weather Roundup
Issued by NWS Goodland, KS

Home | Current Version | Previous Version | Text Only | Print | Product List | Glossary Off
Versions: 1 2 3 4 5 6 7 8 9 10 11 12 13 14 15 16 17 18 19 20 21 22 23 24 25 26 27 28 29 30 31 32 33 34 35 36 37 38 39 40 41 42 43 44 45 46 47 48 49 50

000
ASUS43 KGLD 221659
RWRGLD

GOODLAND FORECAST AREA HOURLY WEATHER ROUNDUP
NATIONAL WEATHER SERVICE GOODLAND KS
1100 AM MDT FRI MAY 22 2015

...OFFICIAL OBSERVATIONS...

CITY           SKY/WX    TMP DP  RH WIND       PRES   REMARKS
GOODLAND KS    RAIN      49  48  97 SE20G31   30.07S FOG
HILL CITY KS   LGT RAIN  52  47  83 S15G21    30.17F
IMPERIAL NEB   LGT RAIN  49  47  93 SE15      30.11S FOG
MCCOOK NEB     LGT RAIN  48  46  93 SE16      30.14F FOG
AKRON CO       LGT RAIN  47  46  97 E14       30.03F
BURLINGTON CO  LGT RAIN  49  47  93 S23       30.03F FOG
LIMON CO       CLOUDY    49  44  83 S8        30.02R
$$

...UNOFFICIAL OBSERVATIONS...

CITY           SKY/WX    TMP DP  RH WIND       PRES   REMARKS
GOVE KS          N/A     50  32  50 MISG        N/A
LENORA KS        N/A     49  32  52 MISG        N/A
SHARON SPRINGS   N/A     50  49  97 MISG        N/A
TRENTON NEB      N/A     48  32  54 SE14        N/A
KIT CARSON CO    N/A     51  48  90 MISG        N/A
YUMA CO          N/A     50  50  99 E20         N/A
$$



USA.gov is the U.S. government's official web portal to all federal, state and local government web resources and services.